User: anonymous   Login
Location: Unspecified
(0.0000°N, 0.0000°E)
Time: 04:45:54
(UTC+00:00)
Language:

Aureole 3 - Orbit

View from above orbital plane
View from above orbital plane
View from above satellite
View from above satellite

Ground track
Ground track

The orbit data is extracted from the following two-line orbital elements,

1 12848U 81094A   18020.61389279 +.00001451 +00000-0 +87358-4 0  9997
2 12848 082.4829 094.4590 0599108 230.5266 124.1462 14.23394063820505
Epoch (UTC): 20 January 2018 14:44:00
Eccentricity: 0.0599108
inclination: 82.4829°
perigee height: 383 km
apogee height: 1245 km
right ascension of ascending node: 94.4590°
argument of perigee: 230.5266°
revolutions per day: 14.23394063
mean anomaly at epoch: 124.1462°
orbit number at epoch: 82050

The dashed part of the orbit path shows where the satellite is in the earth's shadow,  

DLR